Location: Brno
(49.2000°N, 16.6330°E)
Time: 19:04:00
(UTC+02:00)

Transit 4A - Pass Details

Date: 02 August 2021
Orbit: 871 x 974 km, 66.8° (Epoch: 16 September)

Event Time Altitude Azimuth Distance (km) Brightness Sun altitude
Rises 07:52:26 0° 325° (NW) 3,471 10.6 21.8°
Reaches altitude 10° 07:55:05 10° 333° (NNW) 2,535 10.0 22.3°
Maximum altitude 08:00:34 40° 42° (NE) 1,289 9.5 23.2°
Drops below altitude 10° 08:06:07 10° 111° (ESE) 2,567 11.7 24.1°
Sets 08:08:48 0° 119° (ESE) 3,519 11.9 24.5°
